www.pogodaiklimat.ru

Погода и климат >> Архив погоды >> Россия >> Саратовская область >> Балаково


ПОГОДА в Балаково

АРХИВ ПОГОДЫ в Балаково

Время (UTC), дата Ветер
(напр.,м/с)
 
Видим.   Явления Облачность Т
(С)
Тd
(С)
f
(%)
Тe
(С)
Тes
(С)
Комфортность P
(гПа)
Po
(гПа)
Тmin
(С)
Tmax
(С)
R
(мм)
R24
(мм)
S
(см)
03 10.09 СЗ 1 20 км 10/0
[Ac trans Ci fib]
+14.4 +8.8 69 +15 +15 тепло 1028.7 1025.2 +9.7
06 10.09 С 2 20 км 8/0
[Ac trans Ci fib]
+19.5 +10.1 55 +21 +25 комфорт 1028.8 1025.4
09 10.09 СВ 4 20 км 6/3 1000 м
[Sc Ci fib]
+24.4 +11.3 44 +26 +30 жарко 1028.5 1025.2
12 10.09 С 5 20 км 6/3 1000 м
[Sc Ac trans]
+24.4 +11.1 43 +26 +27 жарко 1027.8 1024.5
15 10.09 С 3 20 км 8/5 1000 м
[Cb cap Ac trans]
+21.2 +11.0 52 +23 +23 комфорт 1028.4 1025.0 +25.1
18 10.09 СВ 2 20 км 3/0
[Ci fib]
+15.7 +11.1 74 +16 +16 тепло 1029.1 1025.6
21 10.09 СВ 2 20 км ясно +11.4 +8.9 85 +10 +10 по сезону 1029.9 1026.4
00 11.09 СВ 2 20 км ясно +10.6 +8.9 89 +9 +9 по сезону 1030.9 1027.4
03 11.09 С 3 20 км 3/0
[Ci fib]
+10.4 +8.9 90 +8 +8 прохладно 1032.0 1028.5 +8.8
06 11.09 В 3 20 км ясно +18.7 +9.7 56 +19 +24 тепло 1032.6 1029.2
09 11.09 СВ 4 20 км 1/1 1000 м
[Cu hum]
+22.0 +8.6 42 +23 +29 комфорт 1032.2 1028.8
12 11.09 С 5 20 км ясно +22.6 +7.3 37 +23 +26 комфорт 1031.6 1028.2
15 11.09 С 3 20 км ясно +20.1 +6.4 41 +21 +21 комфорт 1030.9 1027.5 +22.9
18 11.09 СВ 2 20 км ясно +13.6 +6.2 61 +13 +13 по сезону 1031.2 1027.7
21 11.09 С 1 20 км ясно +12.2 +6.6 69 +12 +12 по сезону 1031.3 1027.8
00 12.09 СВ 2 20 км ясно +9.3 +5.3 76 +8 +8 по сезону 1031.2 1027.7
03 12.09 СВ 2 20 км ясно +8.0 +7.2 95 +6 +6 прохладно 1031.6 1028.1 +7.8
06 12.09 СВ 3 20 км ясно +19.4 +7.3 45 +20 +25 тепло 1031.4 1028.0
09 12.09 СВ 1 20 км 5/3 1000 м
[Cu hum Ci fib]
+24.7 +7.7 34 +25 +32 комфорт 1030.4 1027.1
12 12.09 СЗ 3 20 км 3/3 1000 м
[Cu hum]
+25.1 +5.5 28 +25 +27 комфорт 1028.8 1025.5
15 12.09 С 1 20 км ясно +21.8 +6.5 37 +23 +23 комфорт 1028.0 1024.6 +25.1
18 12.09 СВ 1 20 км ясно +13.6 +6.1 60 +14 +14 тепло 1028.1 1024.6
21 12.09 штиль 0 20 км ясно +10.6 +4.6 66 +10 +10 по сезону 1027.5 1024.0
00 13.09 СВ 1 20 км ясно +6.7 -0.3 61 +6 +6 прохладно 1027.2 1023.6
03 13.09 СВ 2 20 км 5/0
[Ci fib]
+6.0 -0.0 65 +4 +4 холодно 1026.8 1023.2 +5.8
06 13.09 С 1 20 км ясно +22.0 +8.2 41 +23 +29 комфорт 1026.5 1023.1
09 13.09 ЮЗ 1 20 км 3/3 1000 м
[Cu hum]
+25.9 +4.2 25 +25 +33 комфорт 1025.1 1021.8
12 13.09 З 3 20 км 1/1 1000 м
[Cu hum]
+26.7 +4.0 23 +25 +29 комфорт 1023.2 1019.9
15 13.09 З 1 20 км ясно +22.0 +5.2 33 +22 +22 комфорт 1021.9 1018.6 +26.8
18 13.09 Ю 1 20 км ясно +12.1 +5.2 63 +12 +12 по сезону 1021.9 1018.4
21 13.09 Ю 1 20 км ясно +9.7 +5.1 73 +9 +9 по сезону 1021.1 1017.6
00 14.09 Ю 1 20 км ясно +8.6 +3.7 71 +8 +8 по сезону 1020.1 1016.6
03 14.09 Ю 2 20 км 3/0
[Ac trans]
+9.8 +3.3 64 +9 +9 по сезону 1019.2 1015.7 +6.8
06 14.09 ЮЗ 3 20 км ясно +19.9 +5.2 38 +21 +25 комфорт 1018.4 1015.0
09 14.09 З 5
{10}
20 км 3/3 1000 м
[Cu hum]
+27.0 +4.6 24 +26 +29 жарко 1016.8 1013.5
12 14.09 З 6
{12}
20 км 3/3 1000 м
[Cu med, cong]
+27.3 +1.5 19 +25 +27 комфорт 1015.1 1011.8
15 14.09 ЮЗ 3
{10}
20 км 5/0
[Ac trans Ci fib]
+22.5 +3.7 29 +22 +22 комфорт 1014.1 1010.7 +27.5
18 14.09 Ю 3 20 км 3/0
[Ci fib]
+18.5 +2.8 35 +19 +19 тепло 1013.4 1010.0
21 14.09 З 3 20 км 8/0
[Ac trans]
+17.3 +3.0 38 +17 +17 тепло 1013.0 1009.6
00 15.09 С 3 20 км 10/0
[Ac und]
+16.1 +9.6 65 +16 +16 тепло 1013.9 1010.5
03 15.09 З 2 20 км 10/5 1000 м
[Cb cap Ac und]
+14.3 +9.1 71 +14 +14 тепло 1014.3 1010.8 +13.4
06 15.09 З 3 10 км в посл. час ливневой дождь 8/4 200 м
[Cb cap Ac cuf Ci fib]
+13.6 +12.7 94 +12 +14 по сезону 1015.0 1011.6 +13.0
09 15.09 СЗ 4 20 км 5/5 1000 м
[Cu med, cong]
+18.8 +8.9 53 +19 +22 тепло 1014.4 1011.0
12 15.09 СЗ 3 20 км 10/4 1000 м
[Sc diur, vesp Ac As]
+18.4 +4.6 40 +19 +19 тепло 1013.6 1010.2
15 15.09 З 3 20 км 3/3 1000 м
[Cu med, cong]
+16.1 +3.1 42 +16 +16 тепло 1013.6 1010.2 +19.7 0.7
18 15.09 З 3
{12}
20 км ясно +11.3 +4.8 64 +10 +10 по сезону 1014.7 1011.3
21 15.09 ЮЗ 3 20 км ясно +8.3 +4.2 75 +6 +6 прохладно 1014.5 1011.0
00 16.09 ЮЗ 2 20 км 10/0
[Cs]
+7.8 +4.8 81 +6 +6 по сезону 1014.1 1010.6
03 16.09 ЮЗ 3 20 км 10/0
[Cs]
+8.1 +5.1 81 +5 +5 прохладно 1013.0 1009.5 +3.4
06 16.09 ЮЗ 6
{10}
20 км 10/0
[Ac und]
+14.4 +4.8 52 +13 +13 по сезону 1010.7 1007.3
09 16.09 ЮЗ 9-14
{14}
20 км 10/0
[Ac und]
+18.7 +3.1 35 +18 +18 тепло 1008.2 1004.9
12 16.09 ЮЗ 5
{16}
20 км 10/0
[Ac und]
+20.2 +2.9 32 +20 +21 тепло 1005.3 1002.0
15 16.09 ЮЗ 4
{11}
20 км 10/0
[Ac und]
+20.2 +2.7 31 +21 +21 комфорт 1003.8 1000.5 +21.1
18 16.09 З 4 20 км 10/0
[Ac und]
+18.5 +4.2 39 +19 +19 тепло 1004.3 1000.9
21 16.09 ЮЗ 2 20 км 3/0
[Ac trans]
+14.8 +6.5 58 +15 +15 тепло 1004.2 1000.9
00 17.09 ЮЗ 2 20 км 3/0
[Ac trans]
+11.7 +6.3 69 +11 +11 тепло 1004.1 1001.1

 

Местоположение метеостанции Балаково (Саратовская область, Россия): широта 52.02 долгота 47.82 высота над уровнем моря 31 м.

В архиве по умолчанию представлена погода в Балаково за последнюю неделю. Архивные данные за месяц целиком и за предыдущие месяцы, начиная с января 2011 года, Вы можете получить, выбрав интересующий диапазон дат из раскрывающегося списка и нажав кнопку "Ввод!".


*Определитесь, кто Вы:
робот инопланетянин человек

Внимание! Время в таблицах - всемирное. Для получения местного времени необходимо прибавить поправку, которая равна 4 ч.

Смотрите также архив погоды в соседних городах и на ближайших метеорологических станциях:

Погода в Хвалынске (Саратовская область, Россия) (56 км)
Погода в Пугачеве (Саратовская область, Россия) (69 км)
Погода в Ершове (Саратовская область, Россия) (80 км)
Погода в Маркс (Саратовская область, Россия) (83 км)
Погода в Карабулаке (Саратовская область, Россия) (105 км)
Погода в Приволжье (Самарская область, Россия) (109 км)
Погода в Канадее (Ульяновская область, Россия) (127 км)
Погода в Красном Куте (Саратовская область, Россия) (133 км)
Погода в Саратове (Саратовская область, Россия) (133 км)
Погода в Саратове ЮВ (Саратовская область, Россия) (135 км)

Пояснения к столбцам:

Ветер - указаны скорость ветра в м/с - средняя за 10 мин, порывы в срок и между сроками (в фигурных скобках) и направление, откуда дует ветер: С - северный, СВ - северо-восточный, В - восточный, ЮВ - юго-восточный, Ю - южный, ЮЗ - юго-западный, З - западный, СЗ - северо-западный.
Видимость - горизонтальная дальность видимости в метрах или километрах. При видимости от 1 до 10 км при отсутствии осадков обычно наблюдается дымка, при ухудшении видимости до 1 км и менее - туман. В сухую погоду видимость может ухудшаться дымом, пылью или мглою.
Явления - указаны атмосферные явления, наблюдавшиеся в срок или в последний час перед сроком; фигурными скобками обозначены явления, наблюдавшиеся между сроками (за 1-3 часа до срока); квадратными скобками обозначены град или гололедные отложения с указанием их диаметра в мм.
Облачность - указаны через наклонную черту общая и нижняя облачность в баллах и высота нижней границы облаков в метрах; квадратными скобками обозначены формы облаков: Ci - перистые, Cs - перисто-слоистые, Cc - перисто-кучевые, Ac - высококучевые, As - высокослоистые, Sc - слоисто-кучевые, Ns - слоисто-дождевые, Cu - кучевые, Cb - кучево-дождевые. Подробнее классификацию облаков см. в Атласе облаков (PDF).
T - Температура воздуха - температура, измеренная на высоте 2 м над землей.
Td - Температура точки росы - температура, при понижении до которой содержащийся в воздухе водяной пар достигнет насыщения.
f - Относительная влажность воздуха - влажноcть воздуха, измеренная на высоте 2 м над землей.
Te - Эффективная температура - температура, которую ощущает одетый по сезону человек в тени. Характеристика душности погоды. При расчете учитывается влияние влажности воздуха и скорости ветра на теплоощущения человека.
Tes - Эффективная температура на солнце - температура, которую ощущает человек, с поправкой на солнечный нагрев. Характеристика знойности погоды. Зависит от высоты солнца над горизонтом, облачности и скорости ветра. Ночью, в пасмурную погоду, а также при ветре 12 м/с и более поправка равна нулю.
P - Атмосферное давление - приведенное к уровню моря атмосферное давление.
Po - Атмосферное давление - измеренное на уровне метеостанции атмосферное давление.
Tmin - Минимальная температура - минимум температуры воздуха на высоте 2 м над землей.
Tmax - Максимальная температура - максимум температуры воздуха на высоте 2 м над землей.
R - Количество осадков - Количество выпавших осадков за период времени, мм. При наведении курсора мыши на число - период времени, за который выпало указанное количество осадков.
R24 - Количество осадков - Количество выпавших осадков за 24 часа, мм.
S - Снежный покров - Высота снежного покрова, см. При наведении курсора мыши на число - состояние снежного покрова и степень покрытия местности в баллах.